Regional Weather Roundup
Issued by NWS

Home | Current Version | Previous Version | Graphics & Text | Print | Product List | Glossary On
Versions: 1 2 3 4 5 6 7 8 9 10 11 12 13 14 15 16 17 18 19 20 21 22 23 24 25 26
000
ASUS45 KBOU 271407
RWRCO

WEATHER ROUNDUP FOR COLORADO
NATIONAL WEATHER SERVICE DENVER/BOULDER CO
800 AM MDT THU JUL 27 2017

NOTE: "FAIR" INDICATES FEW OR NO CLOUDS BELOW 12000 FEET WITH NO
SIGNIFICANT WEATHER AND/OR OBSTRUCTIONS TO VISIBILITY.

COZ001>005-013-030-031-271500-
...NORTHWEST COLORADO...

CITY           SKY/WX    TMP DP  RH WIND       PRES   REMARKS
CRAIG          FAIR      60  56  86 CALM      30.33R
HAYDEN         FAIR      61  52  72 E7        30.34R
MEEKER         FAIR      62  55  77 CALM      30.33R
RABBIT EARS PA FAIR      52  50  93 W5        30.60R
STEAMBOAT SPGS FAIR      58  55  89 CALM      30.36R
WALDEN         CLOUDY    50  48  93 CALM      30.46R VSB<1/4
$$

COZ006>008-011-271500-
...WEST CENTRAL VALLEYS...

CITY           SKY/WX    TMP DP  RH WIND       PRES   REMARKS
GRAND JUNCTION FAIR      71  61  70 SE7       30.20R
MONTROSE       FAIR      67  57  70 SW5       30.29R
EAGLE          SUNNY     61  54  77 E3        30.38R
RIFLE          FAIR      67  60  78 CALM      30.27R
DELTA          FAIR      72  56  55 E3        30.25S HAZE
NUCLA          FAIR      66  54  63 E6        30.32R
$$

COZ017>023-064>068-271500-
...SOUTHWEST COLORADO...

CITY           SKY/WX    TMP DP  RH WIND       PRES   REMARKS
DURANGO        FAIR      63  53  70 CALM      30.32R
CORTEZ         FAIR      65  56  72 NE3       30.26R
PAGOSA SPRINGS PTSUNNY   64  50  58 CALM      30.40S
TELLURIDE      FAIR      57  51  79 CALM      30.52R
WOLF CREEK PAS PTSUNNY   52  45  76 CALM      30.76R
$$

COZ009-010-012-014-032>034-037-058>063-271500-
...CENTRAL COLORADO...

CITY           SKY/WX    TMP DP  RH WIND       PRES   REMARKS
ASPEN          FAIR      62  51  67 SE3       30.40S
BUENA VISTA    CLOUDY    58  53  82 SE3       30.46R
COPPER MTN     FAIR      54  45  71 CALM      30.72R
BERTHOUD PASS  FAIR      45  34  65 NW13      30.74S
COTTONWOOD PAS PTSUNNY   55  52  88 E3        30.58R
GUNNISON       FAIR      57  50  77 CALM      30.44S
KREMMLING      CLOUDY    59  55  88 CALM      30.44R
LEADVILLE      CLOUDY    52  48  86 CALM      30.56R
MONARCH PASS     N/A     50  46  87 SW3       30.81S
SALIDA         FAIR      63  56  79 CALM      30.49F
SUNLIGHT       FAIR      54  46  76 CALM      30.65R
WILKERSON PASS FAIR      52  45  76 CALM      30.68S
$$

COZ069>075-271500-
...SAN LUIS VALLEY/SANGRE DE CRISTO MOUNTAINS...

CITY           SKY/WX    TMP DP  RH WIND       PRES   REMARKS
ALAMOSA        FAIR      59  57  93 W6        30.40S
DEL NORTE      FAIR      60  49  67 SW6       30.45R
LA VETA PASS   NOT AVBL
SAGUACHE         N/A    N/A N/A N/A MISG        N/A
$$

COZ035-036-038>040-271500-
...NORTHERN COLORADO FRONT RANGE...

CITY           SKY/WX    TMP DP  RH WIND       PRES   REMARKS
DENVER INTL AP FAIR      67  61  81 SE14      30.25R
DMNS CITY PARK   N/A     69  59  71 E10       30.26R
AURORA         MOSUNNY   66  61  84 SE13      30.27R
FRONT RANGE AP FAIR      68  63  83 SE16      30.28R
ERIE MUNI ARPT PTSUNNY   63  62  97 N3        30.25R FOG
BOULDER MUN AP FAIR      63  61  94 NW6       30.26R
CENTENNIAL     FAIR      65  59  81 S10       30.28R
BROOMFIELD     FAIR      64  61  88 NW7       30.28R
FORT COLLINS   CLOUDY    64  63  96 CALM      30.26S FOG
LONGMONT       CLOUDY    66  63  90 NW8       30.27R FOG
$$

COZ041-046-047-076>085-087-088-271500-
...PIKES PEAK/PALMER DIVIDE AND SOUTHERN FOOTHILLS...

CITY           SKY/WX    TMP DP  RH WIND       PRES   REMARKS
COLO. SPRINGS  FAIR      66  62  87 VRB5      30.33R
A. F. ACADEMY  MOSUNNY   61  61  99 S7        30.34R
SCHRIEVER AFB  FAIR      61  60  99 NE3       30.34R
CHEYENNE MTN   FAIR      62  55  77 N6        30.31S
ELLICOTT       FAIR     N/A N/A N/A CALM      30.31S
FALCON           N/A     60  59  97 CALM      30.37S
FORT CARSON    FAIR      64  60  87 NW3       30.30R
LIMON          FAIR      65  63  93 E5        30.28S
MONUMENT HILL  FAIR      59  55  88 S13       30.36F
CANON CITY     SUNNY     70  61  73 W9        30.26S
WALSENBURG     FAIR      68  61  77 SW3       30.31S
TRINIDAD       CLOUDY    66  59  78 NW5       30.30S
$$

COZ042>045-048>051-090-091-271500-
...NORTHEAST COLORADO...

CITY           SKY/WX    TMP DP  RH WIND       PRES   REMARKS
GREELEY ARPT   FAIR      66  63  90 CALM      30.24R FOG
AKRON          PTSUNNY   67  62  84 SE14      30.24R
BURLINGTON     CLOUDY    69  66  90 E9        30.23R
WRAY           NOT AVBL
YUMA           NOT AVBL
STERLING       PTSUNNY   70  64  83 SE6       30.20R
HOLYOKE        CLOUDY    70  64  83 SE8       30.21S FOG
FORT MORGAN    PTSUNNY   72  64  76 SE12      30.23S
$$

COZ086-089-092>099-271500-
...SOUTHEAST COLORADO...

CITY           SKY/WX    TMP DP  RH WIND       PRES   REMARKS
PUEBLO         FAIR      67  63  87 E5        30.25R
LA JUNTA       CLOUDY    68  64  87 W8        30.22S
LAMAR          CLOUDY    72  68  87 E5        30.18R
SPRINGFIELD      N/A     67  66  97 CALM      30.21F
$$




USA.gov is the U.S. government's official web portal to all federal, state and local government web resources and services.